YACHTS Weather Reports


time (UTC)temp
C
wind
direction
speed
KPH
gust
KPH
rain 1hr
cm
rain 24hr
cm
rain mn
cm
humidity
%
barometer
mb
20260505093241 11 267 1.6 9.7 0.00 0.00 0.00 89 1014.5
20260505092728 11 0 0.0 6.4 0.00 0.00 0.00 88 1014.5
20260505092215 11 306 0.0 6.4 0.00 0.00 0.00 89 1014.5
20260505090636 11 0 0.0 0.0 0.00 0.00 0.00 89 1014.3
20260505090123 11 0 0.0 8.0 0.00 0.00 0.00 89 1014.4
20260505085610 11 0 0.0 8.0 0.00 0.00 0.00 89 1014.3
20260505085057 11 225 0.0 8.0 0.00 0.00 0.00 89 1014.3
20260505084544 11 0 0.0 0.0 0.00 0.00 0.00 89 1014.4
20260505083518 11 0 0.0 0.0 0.00 0.00 0.00 89 1014.4
20260505083005 11 299 0.0 9.7 0.00 0.00 0.00 89 1014.5
20260505082452 11 0 0.0 9.7 0.00 0.00 0.00 89 1014.4
20260505081939 11 0 0.0 9.7 0.00 0.00 0.00 89 1014.4
20260505081426 11 182 3.2 8.0 0.00 0.00 0.00 89 1014.4
20260505080913 11 127 3.2 14.5 0.00 0.00 0.00 89 1014.4
20260505080400 11 138 0.0 14.5 0.00 0.00 0.00 89 1014.4
20260505075847 11 0 0.0 14.5 0.00 0.00 0.00 89 1014.5
20260505074821 11 0 0.0 11.3 0.00 0.00 0.00 89 1014.6
20260505074307 11 0 0.0 11.3 0.00 0.00 0.00 89 1014.6
20260505073755 11 217 0.0 11.3 0.00 0.00 0.00 89 1014.5
20260505073243 11 240 0.0 9.7 0.00 0.00 0.00 89 1014.5
20260505072728 11 242 4.8 9.7 0.00 0.00 0.00 89 1014.5
20260505072215 11 0 0.0 6.4 0.00 0.00 0.00 88 1014.4
20260505071702 11 145 0.0 6.4 0.00 0.00 0.00 88 1014.4
20260505071149 11 238 0.0 4.8 0.00 0.00 0.00 88 1014.5
20260505070636 11 238 0.0 4.8 0.00 0.00 0.00 88 1014.5
20260505070124 11 197 1.6 12.9 0.00 0.00 0.00 88 1014.5
20260505065610 11 240 0.0 12.9 0.00 0.00 0.00 88 1014.6
20260505065057 11 247 0.0 12.9 0.00 0.00 0.00 88 1014.6
20260505064545 11 0 0.0 12.9 0.00 0.00 0.00 88 1014.6
20260505064031 11 0 0.0 12.9 0.00 0.00 0.00 88 1014.7
20260505063519 11 264 0.0 11.3 0.00 0.00 0.00 88 1014.7
20260505063006 11 140 0.0 11.3 0.00 0.00 0.00 88 1014.6
20260505062452 11 275 6.4 11.3 0.00 0.00 0.00 88 1014.5
20260505061939 11 0 0.0 8.0 0.00 0.00 0.00 87 1014.5
20260505061426 11 0 0.0 8.0 0.00 0.00 0.00 87 1014.4
20260505060913 11 0 0.0 8.0 0.00 0.00 0.00 87 1014.5
20260505055847 11 0 0.0 8.0 0.00 0.00 0.00 87 1014.5
20260505055336 11 0 0.0 8.0 0.00 0.00 0.00 87 1014.5
20260505054821 11 0 0.0 8.0 0.00 0.00 0.00 87 1014.5
20260505054308 11 0 0.0 8.0 0.00 0.00 0.00 87 1014.7
20260505053755 11 225 0.0 8.0 0.00 0.00 0.00 87 1014.7
20260505053242 11 0 0.0 8.0 0.00 0.00 0.00 87 1014.7
20260505052729 11 261 0.0 8.0 0.00 0.00 0.00 87 1014.7
20260505052216 11 257 1.6 8.0 0.00 0.00 0.00 86 1014.7
20260505051703 11 0 0.0 8.0 0.00 0.00 0.00 86 1014.6
20260505051152 11 0 0.0 0.0 0.00 0.00 0.00 86 1014.6
20260505050637 11 246 0.0 11.3 0.00 0.00 0.00 86 1014.6
20260505050124 11 268 0.0 11.3 0.00 0.00 0.00 86 1014.6
20260505041427 11 278 0.0 16.1 0.00 0.00 0.00 85 1014.1
20260505040915 11 245 0.0 16.1 0.00 0.00 0.00 85 1014.0
20260505040401 11 252 4.8 16.1 0.00 0.00 0.00 85 1013.9
20260505035849 11 0 0.0 9.7 0.00 0.00 0.00 85 1013.9
20260505035336 11 256 0.0 8.0 0.00 0.00 0.00 84 1013.8
20260505034822 11 259 3.2 14.5 0.00 0.00 0.00 84 1013.8
20260505034309 11 0 0.0 14.5 0.00 0.00 0.00 84 1013.7
20260505033757 11 232 0.0 14.5 0.00 0.00 0.00 84 1013.7
20260505033243 11 0 0.0 14.5 0.00 0.00 0.00 84 1013.7
20260505032730 11 261 0.0 14.5 0.00 0.00 0.00 83 1013.7
20260505032217 11 278 6.4 14.5 0.00 0.00 0.00 83 1013.6
20260505031704 11 224 0.0 12.9 0.00 0.00 0.00 83 1013.6
20260505031152 11 236 0.0 12.9 0.00 0.00 0.00 83 1013.5
20260505030638 11 0 0.0 12.9 0.00 0.00 0.00 83 1013.5
20260505030125 11 0 0.0 12.9 0.00 0.00 0.00 83 1013.5
20260505025612 11 180 0.0 12.9 0.00 0.00 0.00 83 1013.3
20260505025059 11 284 0.0 9.7 0.00 0.00 0.00 83 1013.3
20260505024546 11 0 0.0 0.0 0.00 0.00 0.00 83 1013.4
20260505024034 11 291 0.0 14.5 0.00 0.00 0.00 83 1013.4
20260505023523 11 263 4.8 14.5 0.00 0.00 0.00 83 1013.3
20260505023007 11 291 8.0 14.5 0.00 0.00 0.00 83 1013.3
20260505022454 11 295 0.0 11.3 0.00 0.00 0.00 83 1013.3
20260505021941 12 295 0.0 12.9 0.00 0.00 0.00 82 1013.2
20260505021428 12 253 0.0 12.9 0.00 0.00 0.00 82 1013.2
20260505020915 12 254 4.8 12.9 0.00 0.00 0.00 82 1013.1
20260505020402 12 250 0.0 12.9 0.00 0.00 0.00 82 1013.2
20260505015849 12 203 4.8 17.7 0.00 0.00 0.00 82 1013.2
20260505015336 12 198 3.2 17.7 0.00 0.00 0.00 82 1013.2
20260505014823 12 257 4.8 17.7 0.00 0.00 0.00 81 1013.2
20260505014310 12 228 3.2 6.4 0.00 0.00 0.00 81 1013.2
20260505013757 12 310 6.4 19.3 0.00 0.00 0.00 81 1013.2
20260505012732 12 25 3.2 16.1 0.00 0.00 0.00 81 1013.4
20260505012219 12 246 9.7 16.1 0.00 0.00 0.00 81 1013.4
20260505011705 12 231 8.0 16.1 0.00 0.00 0.00 81 1013.5
20260505011152 12 253 8.0 16.1 0.00 0.00 0.00 81 1013.6
20260505010639 12 257 3.2 16.1 0.00 0.00 0.00 81 1013.6
20260505005613 12 274 6.4 16.1 0.00 0.00 0.00 81 1013.7
20260505004034 12 274 11.3 20.9 0.00 0.00 0.00 81 1013.8
20260505003521 12 264 8.0 22.5 0.00 0.00 0.00 81 1013.8
20260505003008 13 260 8.0 22.5 0.00 0.00 0.00 81 1013.8
20260505001942 12 259 8.0 20.9 0.00 0.00 0.00 81 1013.8
20260504234311 12 264 4.8 29.0 0.00 0.00 0.00 80 1013.8
20260504232219 13 268 14.5 27.4 0.00 0.00 0.00 80 1013.8
20260504231706 13 245 9.7 27.4 0.00 0.00 0.00 80 1013.8
20260504231154 13 275 14.5 27.4 0.00 0.00 0.00 80 1013.8
20260504224548 13 254 11.3 22.5 0.00 0.00 0.00 82 1014.1
20260504224035 13 225 11.3 22.5 0.00 0.00 0.00 83 1014.2
20260504223522 13 252 8.0 20.9 0.00 0.00 0.00 83 1014.2
20260504221943 13 263 8.0 29.0 0.00 0.00 0.00 84 1014.4
20260504221430 13 260 8.0 29.0 0.00 0.00 0.00 84 1014.5
20260504220404 13 264 9.7 24.1 0.00 0.00 0.00 85 1014.6
20260504215851 12 294 3.2 24.1 0.00 0.00 0.00 85 1014.6
20260504214825 13 263 8.0 14.5 0.00 0.00 0.00 86 1014.7
20260504213759 13 285 11.3 27.4 0.00 0.00 0.00 86 1014.6
20260504212220 12 215 9.7 25.7 0.00 0.00 0.00 86 1014.7
20260504211154 12 259 12.9 25.7 0.00 0.00 0.00 86 1014.8
20260504210641 12 264 12.9 22.5 0.00 0.00 0.00 86 1014.8
20260504210128 12 229 12.9 25.7 0.00 0.00 0.00 85 1014.8
20260504205615 12 296 11.3 25.7 0.00 0.00 0.00 86 1014.8
20260504205102 13 263 8.0 25.7 0.00 0.00 0.00 87 1014.7
20260504204549 12 243 8.0 20.9 0.00 0.00 0.00 87 1014.8
20260504204036 12 263 11.3 20.9 0.00 0.00 0.00 86 1014.7
20260504203523 12 121 6.4 20.9 0.00 0.00 0.00 88 1014.8
20260504202457 12 260 11.3 24.1 0.00 0.00 0.00 89 1014.9
20260504201944 12 294 9.7 24.1 0.00 0.00 0.00 89 1014.8
20260504201431 12 284 8.0 24.1 0.00 0.00 0.00 89 1014.9
20260504200918 12 214 6.4 16.1 0.00 0.00 0.00 89 1014.9
20260504200405 12 329 6.4 19.3 0.00 0.00 0.00 89 1014.9
20260504195852 12 302 8.0 19.3 0.00 0.00 0.00 89 1014.9
20260504194826 11 0 9.7 24.1 0.00 0.00 0.00 89 1014.8
20260504194313 12 267 8.0 24.1 0.00 0.00 0.00 89 1014.9
20260504193800 12 257 8.0 24.1 0.00 0.00 0.00 89 1014.8
20260504193247 12 282 6.4 19.3 0.00 0.00 0.00 89 1014.7
20260504192734 12 278 4.8 19.3 0.00 0.00 0.00 89 1014.7
20260504192221 12 242 0.0 19.3 0.00 0.00 0.00 89 1014.6
20260504191708 12 270 4.8 16.1 0.00 0.00 0.00 89 1014.6
20260504191155 12 175 6.4 16.1 0.00 0.00 0.00 90 1014.6
20260504190642 11 326 6.4 16.1 0.00 0.00 0.00 90 1014.6
20260504190129 12 289 6.4 16.1 0.00 0.00 0.00 90 1014.7
20260504185616 11 252 8.0 12.9 0.00 0.00 0.00 90 1014.7
20260504185103 11 273 12.9 22.5 0.00 0.00 0.00 90 1014.8
20260504184549 11 266 9.7 22.5 0.00 0.00 0.00 90 1014.9
20260504184036 11 257 11.3 22.5 0.00 0.00 0.00 89 1014.8
20260504183524 11 252 6.4 19.3 0.00 0.00 0.00 90 1014.9
20260504182457 11 261 6.4 11.3 0.00 0.00 0.00 90 1014.7
20260504181945 11 267 8.0 16.1 0.00 0.00 0.00 90 1014.7
20260504175852 11 197 4.8 17.7 0.00 0.00 0.00 90 1014.7
20260504175339 11 305 8.0 17.7 0.00 0.00 0.00 90 1014.7
20260504174826 11 267 1.6 20.9 0.00 0.00 0.00 90 1014.7
20260504174313 11 0 6.4 20.9 0.00 0.00 0.00 90 1014.6
20260504173800 11 287 8.0 20.9 0.00 0.00 0.00 90 1014.7
20260504173247 11 299 1.6 16.1 0.00 0.00 0.00 90 1014.7
20260504172734 11 267 6.4 16.1 0.00 0.00 0.00 90 1014.6
20260504172221 11 259 8.0 17.7 0.00 0.00 0.00 90 1014.6
20260504171708 11 212 6.4 17.7 0.00 0.00 0.00 90 1014.6
20260504170643 11 268 8.0 14.5 0.00 0.00 0.00 90 1014.6
20260504170129 11 266 1.6 11.3 0.00 0.00 0.00 91 1014.5
20260504160407 11 231 1.6 24.1 0.00 0.00 0.00 91 1014.2
20260504150643 11 226 0.0 16.1 0.00 0.00 0.00 92 1014.1
20260504150130 11 183 1.6 16.1 0.00 0.00 0.00 92 1014.1
20260504140920 10 200 4.8 16.1 0.00 0.00 0.00 91 1013.7
20260504140408 10 281 0.0 8.0 0.00 0.00 0.00 91 1013.6
20260504130644 10 0 0.0 12.9 0.00 0.00 0.00 91 1013.1
20260504130131 10 0 0.0 12.9 0.00 0.00 0.00 91 1013.0
20260504110646 10 207 4.8 16.1 0.00 0.00 0.00 92 1012.9
20260504100409 10 161 0.0 11.3 0.00 0.00 0.00 92 1012.9